Location: Julian California
(33.0790°N, 116.6010°W)
Time: 11:11:18
(UTC-07:00)

H-2A R/B - Pass Details

Date: 14 June 2018
Orbit: 735 x 836 km, 98.3° (Epoch: 21 June)

Event Time Altitude Azimuth Distance (km) Brightness Sun altitude
Exits shadow 22:19:20 31° 210° (SSW) 1,340 3.0 -23.6°
Maximum altitude 22:21:18 46° 261° (W) 1,053 2.8 -23.8°
Drops below altitude 10° 22:26:21 10° 334° (NNW) 2,383 5.6 -24.4°
Sets 22:28:50 0° 340° (NNW) 3,333 6.5 -24.7°
